Location: Cluny
(50.9333°N, 112.8167°W)
Time: 10:35:42
(UTC-06:00)

Hamsat - Visible Passes

Search period start: 20 April 2018 00:00
Search period end: 30 April 2018 00:00
Orbit: 585 x 617 km, 97.7° (Epoch: 19 April)

Date Brightness Start Highest point End Pass type
(mag) Time Alt. Az. Time Alt. Az. Time Alt. Az.
20 Apr ? 05:02:42 10° NNE 05:06:47 46° E 05:10:48 10° S visible
21 Apr ? 05:14:08 10° NNE 05:18:20 61° ESE 05:22:26 10° S visible
22 Apr ? 05:25:36 10° NNE 05:29:50 79° ESE 05:34:01 10° S visible
23 Apr ? 04:03:09 10° ENE 04:05:00 13° E 04:06:50 10° ESE visible
23 Apr ? 05:37:07 10° NNE 05:41:20 80° WNW 05:45:30 10° SSW visible
24 Apr ? 04:13:59 10° NE 04:16:38 16° E 04:19:15 10° SE visible
25 Apr ? 04:25:05 10° NE 04:28:15 20° E 04:31:24 10° SE visible
26 Apr ? 04:36:19 10° NE 04:39:51 26° E 04:43:22 10° SSE visible
27 Apr ? 04:47:37 10° NNE 04:51:26 33° E 04:55:12 10° SSE visible
28 Apr ? 04:58:59 10° NNE 05:03:00 43° E 05:06:57 10° S visible
29 Apr ? 05:10:24 10° NNE 05:14:32 56° E 05:18:37 10° S visible
